Location: Lucerne Valley
(34.4439°N, 116.9669°E)
Time: 11:34:19
(UTC-07:00)

Envisat - Pass Details

Date: 11 October 2017
Orbit: 764 x 766 km, 98.2° (Epoch: 18 October)

Event Time Altitude Azimuth Distance (km) Brightness Sun altitude
Exits shadow 04:08:59 20° 44° (NE) 1,727 4.5 -18.5°
Drops below altitude 10° 04:11:24 10° 18° (NNE) 2,304 5.3 -19.0°
Sets 04:14:09 0° 4° (N) 3,234 6.3 -19.6°
